Powrót do katalogu

STARLINK-3782

AktywnyŁącznośćVLEO
NORAD 52273·PAYLOAD·🇺🇸 United States

Wystrzelony Apr 21, 2022 z Cape Canaveral Space Force Station

Loading…

Następne Przeloty (najbliższe 24 godziny)

TLE

ŚwieżeSource: CelesTrak SupGP

Epoka: Sep 15, 2026, 01:05 UTC

1 52273C 22041N   26258.04562500  .00049616  00000+0  15953-2 0  2581
2 52273  53.1567 317.1903 0001026  81.0490 194.1729 15.31682251    11

Śledź STARLINK-3782 w czasie rzeczywistym z AllMySat

Download on the App Store